Vorticity
5 4 3 0 12 12 4 4 3 6 7 6 5 5 7 6 6 7 8 8 7 7 5 5 5 5 6 5 5 6 6 5 6 7 6 5 7 9 9 7 4 4 7 11 7 12 18 12 10 9 11 10 9 9 9 8 5 8 6 5 7 7 5 0 8 13 14 11 5 3 4 4 5 5 3 4 6 5 4 5 6 6 7 8 9 10 9 6 6 7 6 7 7 7 8 8 7
5 5 4 5 17 13 4 4 2 7 10 3 1 4 5 5 6 7 8 7 6 8 7 7 7 6 7 5 3 6 6 6 5 6 7 5 7 8 8 7 3 2 2 6 7 12 20 18 12 10 12 8 6 4 5 9 9 11 8 8 10 10 6 1 11 20 17 9 4 5 5 5 5 5 5 7 5 3 4 5 6 7 9 9 8 9 6 4 6 5 5 6 6 8 8 7 7
6 5 5 10 16 9 3 6 3 5 7 2 4 6 3 4 5 6 7 6 7 8 8 7 7 6 7 6 4 5 4 4 4 6 8 4 6 7 6 8 5 3 2 3 6 8 13 17 14 11 12 8 8 6 8 13 12 12 10 7 7 8 3 0 13 19 15 8 6 6 5 5 5 4 5 7 5 4 5 5 7 8 9 8 7 7 4 5 6 5 5 6 10 11 6 6 8
6 6 5 11 13 5 4 6 1 3 7 4 7 7 3 4 5 7 7 6 6 7 7 6 7 7 7 6 3 4 2 3 6 9 10 5 4 5 5 7 7 7 5 3 7 8 9 11 10 16 21 21 22 15 12 15 11 8 9 10 11 7 1 8 16 12 9 7 7 6 6 7 4 4 5 6 5 5 5 5 7 7 8 8 8 7 5 7 6 5 5 9 12 8 4 6 7
5 6 3 8 10 3 4 4 1 4 6 5 7 8 4 5 6 7 7 6 6 8 7 6 8 8 6 4 2 4 3 5 9 11 13 7 3 6 7 7 9 8 4 5 7 8 7 6 6 13 23 24 22 13 6 6 3 8 18 26 31 26 17 19 15 8 7 3 5 6 5 6 4 4 5 5 4 4 5 6 8 7 7 6 9 7 7 9 5 4 6 8 8 3 3 6 7
3 6 5 9 10 5 5 4 5 5 4 8 9 7 6 7 8 7 6 6 6 7 7 8 8 7 4 3 2 3 4 7 8 12 15 9 6 10 8 6 8 4 2 5 7 8 6 5 5 6 11 14 16 11 8 9 7 12 17 22 30 33 23 14 7 7 7 -0 4 8 5 5 4 5 4 3 3 4 5 8 8 7 6 6 9 6 8 12 6 8 10 8 7 4 5 8 9
4 6 7 10 10 8 10 6 5 7 7 13 10 3 5 6 6 6 5 4 5 4 4 7 8 9 6 3 2 2 5 7 6 10 14 13 13 11 8 7 5 2 4 6 6 7 6 6 6 4 3 5 10 11 16 19 16 13 10 8 11 15 9 5 3 5 7 2 3 9 9 6 3 4 4 2 4 5 6 7 7 7 8 7 6 2 6 8 4 9 9 4 5 6 7 8 8
5 6 5 5 7 7 10 7 5 10 7 7 8 3 3 5 4 5 6 4 4 3 3 5 7 9 6 4 4 3 5 5 4 7 12 16 17 11 7 7 5 5 6 3 3 4 6 7 6 6 4 3 5 6 12 15 11 8 8 7 6 8 6 4 4 3 7 5 4 8 7 4 4 3 3 3 4 6 6 6 6 7 8 6 4 3 4 2 5 11 9 6 7 8 8 9 8
4 6 5 4 6 4 6 6 6 9 4 3 8 7 3 6 5 6 8 4 4 4 3 4 5 7 5 7 6 4 5 3 4 6 10 15 16 12 8 6 6 7 3 -0 2 4 5 7 8 8 7 5 4 4 7 9 9 8 11 14 10 11 8 6 7 6 11 9 5 8 3 3 5 3 4 4 5 6 6 6 6 7 6 6 5 5 5 2 7 10 8 9 8 7 10 10 9
4 7 6 5 5 2 5 5 6 8 4 3 5 6 4 6 8 7 8 3 5 6 3 3 5 6 5 7 6 4 4 2 3 5 7 11 12 12 10 7 6 6 3 2 4 5 5 7 9 9 8 8 5 7 9 6 8 9 11 14 11 11 9 9 12 10 12 8 3 6 4 4 5 3 4 4 5 6 6 6 6 8 7 7 6 5 7 5 6 5 2 2 2 5 10 10 9
3 9 7 5 0 1 14 10 7 9 6 4 2 6 7 8 9 5 5 5 7 7 3 4 4 5 5 6 6 5 3 2 3 4 6 8 9 9 10 10 7 7 7 6 4 4 5 4 7 7 7 8 3 5 10 7 6 5 5 8 8 9 9 8 10 9 7 5 3 5 6 4 4 3 4 5 6 5 6 7 6 8 8 6 6 6 8 7 6 7 4 1 1 4 5 4 6
2 9 5 4 -0 5 28 23 10 6 2 4 5 8 7 9 10 5 7 9 8 5 3 5 3 3 5 5 6 6 4 3 1 3 6 8 9 7 9 10 9 10 9 6 4 3 3 1 4 6 5 7 4 0 5 8 7 5 2 4 6 7 7 4 5 5 4 3 2 6 8 4 4 4 4 5 5 6 7 6 6 7 7 6 6 7 8 7 6 7 7 5 5 6 4 5 7
1 5 -0 0 2 9 30 30 14 4 -1 5 12 12 5 6 9 6 7 6 5 3 3 6 2 3 7 5 6 7 4 4 2 2 6 8 9 7 6 7 7 10 10 7 6 5 4 3 4 6 5 5 6 3 1 3 4 4 2 3 5 6 5 3 3 4 5 4 3 5 7 4 4 5 5 5 5 6 7 6 6 6 7 6 7 8 7 6 7 7 6 5 7 8 9 11 10
2 3 -0 -3 1 10 22 25 12 -2 -4 5 14 12 4 3 6 6 6 5 5 3 2 5 3 5 8 5 5 7 4 5 4 2 6 9 10 8 6 4 4 8 10 9 9 9 7 7 6 6 7 5 6 6 3 4 4 2 2 3 4 4 4 4 4 5 5 5 5 6 6 4 5 6 4 5 6 5 6 6 6 7 8 7 8 8 7 7 7 7 6 6 8 11 12 10 8
6 5 3 -3 -1 8 13 13 11 7 8 9 10 9 4 3 5 7 6 5 5 3 5 6 3 6 7 4 3 6 5 5 5 3 4 9 10 10 7 5 7 10 11 9 9 10 9 9 7 6 7 7 7 5 4 6 7 4 4 5 5 5 5 6 6 5 3 2 5 5 5 5 4 6 6 6 6 5 7 6 7 9 8 8 8 6 7 8 7 7 6 6 9 13 12 9 7
7 5 4 0 -1 6 8 6 7 12 17 12 8 9 4 4 7 9 6 4 5 6 11 7 1 6 7 2 3 5 5 5 6 4 4 10 12 10 8 8 9 10 11 10 9 9 9 9 7 6 7 9 9 5 4 6 6 5 5 6 6 5 5 8 7 5 5 4 5 5 5 4 4 7 7 6 6 6 7 7 9 11 8 7 7 7 8 7 7 8 6 7 11 13 11 8 6
6 8 6 2 0 3 6 5 1 1 5 6 6 7 4 4 8 8 4 2 4 5 10 7 0 6 5 -0 4 6 5 6 6 4 6 11 12 12 9 8 9 9 10 10 10 11 11 10 8 8 7 9 9 7 7 6 4 3 4 6 6 4 2 5 5 3 5 6 5 6 5 3 4 7 6 6 6 7 7 8 11 11 7 6 7 9 8 7 8 8 6 9 12 12 10 7 6
6 8 6 3 3 3 2 3 4 3 3 2 3 5 5 7 7 6 4 -0 3 6 8 8 5 6 3 -0 4 5 4 5 6 5 8 12 11 11 9 8 9 11 12 11 11 12 11 11 10 10 8 7 7 8 9 6 5 6 6 5 5 4 2 3 4 3 5 6 6 5 3 3 6 6 5 6 6 7 8 9 11 9 7 8 9 8 6 7 9 7 7 10 11 11 9 6 6
6 5 5 3 3 5 3 3 5 5 5 4 4 7 6 6 5 6 7 0 3 8 6 7 7 6 6 3 4 5 4 4 6 5 9 12 9 11 10 9 11 11 11 10 11 12 12 11 9 10 9 9 8 7 8 6 5 7 6 5 5 5 5 4 4 5 5 5 5 4 4 6 6 4 5 6 5 6 9 10 10 9 9 10 8 5 7 9 7 6 7 9 11 10 7 6 5
7 4 5 4 3 4 4 4 4 4 4 4 7 11 9 6 4 5 5 2 5 7 7 8 7 6 5 5 5 5 4 4 7 6 8 11 9 11 10 9 9 9 9 9 10 11 10 10 9 9 9 9 9 9 8 7 7 7 7 7 6 4 6 6 5 6 6 5 4 4 6 6 4 4 6 5 4 7 9 8 8 9 10 8 6 6 9 9 6 6 8 10 10 8 6 5 5
6 5 5 4 4 3 4 4 4 3 3 2 4 9 12 11 6 3 5 5 5 6 7 8 8 8 6 6 7 4 3 5 6 6 9 10 9 10 9 7 8 7 8 10 11 10 9 9 8 9 9 8 8 9 9 7 7 10 11 8 7 7 6 5 5 5 6 6 5 5 6 4 4 6 6 5 6 9 9 7 8 9 8 7 8 9 9 7 5 6 8 10 10 8 6 5 5
7 6 6 5 5 5 5 5 4 3 3 3 2 2 7 10 5 3 7 5 2 5 9 9 8 10 7 5 7 5 5 5 6 7 9 10 8 8 7 6 7 7 8 11 11 10 10 9 8 8 7 8 9 9 9 7 8 12 13 11 9 9 8 7 7 5 7 7 6 7 5 3 6 6 6 7 8 10 9 9 9 8 7 9 10 8 7 6 5 8 11 11 10 7 6 5 5
6 5 7 7 5 6 7 5 5 4 2 2 3 2 3 7 7 6 7 4 2 5 7 7 6 7 7 5 5 6 6 5 6 6 9 10 7 7 6 5 6 7 9 11 11 10 10 10 10 9 8 8 9 9 9 7 7 11 14 12 10 10 9 9 9 7 8 8 7 7 3 3 8 7 7 8 11 13 11 11 10 9 10 10 9 7 7 6 6 10 11 11 10 7 6 5 6
4 5 8 8 5 5 6 5 6 8 6 3 4 4 3 6 9 8 8 8 7 4 2 4 5 5 6 6 5 6 6 5 6 5 9 11 8 6 3 4 8 10 11 13 13 12 11 11 11 10 10 9 8 8 9 8 8 10 11 11 10 10 9 9 10 8 8 8 7 6 4 6 10 9 8 8 14 18 13 10 9 10 11 8 7 8 7 5 8 10 9 10 9 6 6 6 5
3 4 7 9 8 6 7 8 8 10 9 5 5 4 3 5 5 6 8 8 7 5 4 6 6 5 6 8 7 7 7 5 5 5 9 11 8 5 2 4 9 11 10 12 13 13 11 11 12 12 11 10 9 8 8 8 8 9 10 11 11 10 9 9 9 8 8 7 6 7 8 9 11 9 7 11 19 18 11 8 8 10 9 7 9 8 5 6 9 9 9 10 8 6 6 6 5
2 4 6 7 7 5 9 11 9 9 7 4 5 5 4 5 3 4 7 8 8 7 5 7 8 6 6 10 9 8 6 4 4 4 9 12 7 4 3 5 9 10 10 11 12 13 13 11 9 11 11 12 11 9 8 8 8 9 10 11 12 11 10 8 7 9 9 8 7 7 9 13 12 8 10 18 20 12 7 6 8 9 7 8 9 5 4 8 9 8 9 9 8 7 6 6 5
5 6 3 3 5 6 11 12 8 8 6 4 5 5 6 6 5 7 8 8 10 8 6 9 10 5 5 9 9 8 5 4 5 4 7 11 7 4 3 6 9 10 10 11 12 12 13 12 9 10 11 12 12 11 9 9 9 8 8 11 15 15 13 12 8 7 7 9 7 5 14 17 9 10 18 20 14 7 7 7 8 8 8 10 7 4 7 9 8 7 8 8 8 7 6 5 4
8 7 3 5 7 8 15 14 9 8 5 4 6 5 6 7 8 8 7 10 11 9 6 8 10 6 5 7 8 8 5 4 5 4 7 9 7 5 3 7 10 10 10 9 10 11 10 11 10 10 11 11 13 12 10 9 9 8 8 11 15 16 14 13 9 9 9 7 6 11 19 13 9 20 23 14 7 6 8 8 9 10 9 7 4 5 9 8 7 6 7 8 8 7 6 4 4
8 7 5 7 8 8 14 12 7 6 4 4 5 4 4 5 6 4 6 12 11 9 7 8 12 8 4 7 8 7 5 4 4 4 7 9 8 6 5 7 9 9 9 9 8 8 8 9 10 11 12 11 12 12 11 10 9 8 8 8 11 14 14 12 10 13 15 10 11 18 16 11 18 25 16 7 7 7 9 10 11 10 7 4 5 7 7 7 6 6 6 7 7 7 6 4 4
10 12 8 4 5 8 11 7 4 4 3 4 4 5 1 -3 1 1 5 8 7 13 10 4 12 9 1 6 7 6 6 3 2 5 6 10 12 8 5 7 9 9 8 8 8 7 7 8 9 11 12 11 11 12 11 11 9 9 10 9 9 10 15 18 15 15 15 12 15 17 15 19 23 16 7 6 7 8 10 11 9 6 4 4 6 7 6 7 7 6 6 6 6 7 6 4 4
12 15 9 3 3 9 9 4 4 3 3 4 4 4 0 -2 3 3 4 4 4 16 15 1 11 17 2 2 7 5 6 3 2 5 4 11 14 6 4 8 9 9 7 8 8 8 9 12 12 13 14 13 12 12 12 11 11 12 13 13 11 7 13 20 18 15 12 11 17 22 22 22 15 6 5 7 8 11 11 9 6 3 4 6 7 6 5 6 7 7 6 5 6 7 6 4 4
15 14 7 4 5 8 8 4 3 4 4 6 3 2 4 3 5 6 6 6 3 12 25 11 6 20 10 1 7 5 5 4 3 5 4 11 13 5 6 8 8 8 7 7 8 9 13 17 16 14 13 13 13 13 12 9 9 11 10 11 11 9 11 14 13 12 12 15 22 22 18 12 6 5 7 8 10 10 7 5 4 4 5 6 6 6 6 6 8 8 7 6 7 8 5 3 4
12 14 7 6 8 8 8 4 2 5 5 5 3 2 6 3 1 6 7 9 3 1 27 23 3 16 16 2 5 6 5 4 4 5 7 14 11 3 7 8 8 8 6 7 9 12 15 19 18 14 12 11 11 9 8 9 9 12 13 14 16 13 12 16 17 17 19 21 18 12 9 7 6 7 8 9 8 5 4 4 4 5 5 5 5 6 6 7 7 8 7 6 7 8 6 3 3
6 10 7 7 10 10 10 5 2 5 4 5 4 2 4 2 -2 2 4 10 8 5 27 27 8 20 20 4 5 6 7 6 6 6 8 15 10 3 7 7 7 7 6 9 11 13 18 20 16 11 11 9 8 9 11 15 16 18 23 25 24 20 18 23 24 22 20 16 9 6 7 7 7 7 8 6 4 3 4 4 4 5 5 5 6 7 8 9 7 6 6 7 7 8 7 5 4
3 5 6 7 8 8 8 5 3 4 4 4 4 3 5 6 4 4 5 6 10 23 35 17 8 28 21 5 7 7 6 4 5 5 5 12 9 4 7 7 7 6 7 11 13 15 17 17 15 14 17 15 13 15 16 15 15 19 23 24 24 22 21 21 19 16 12 8 7 8 7 6 6 5 4 3 4 5 4 5 5 5 5 6 8 9 10 9 8 6 6 7 7 7 7 6 5
2 1 4 6 6 7 7 5 6 5 6 5 4 7 7 8 9 6 8 13 26 44 37 6 3 24 16 3 6 5 4 4 5 5 4 9 8 3 6 8 6 6 8 12 13 16 16 13 16 17 19 16 12 13 13 11 14 17 18 19 19 17 15 13 12 10 8 7 7 7 5 4 4 3 4 4 5 5 5 6 5 5 7 8 9 9 9 9 7 6 6 6 5 6 6 6 5
7 5 5 5 3 6 7 4 6 7 8 7 5 8 7 9 8 6 12 23 39 41 22 7 7 13 9 2 4 5 5 8 8 4 3 9 11 5 5 9 6 5 9 13 13 15 15 13 12 9 8 9 7 10 13 13 15 15 14 14 13 11 10 9 9 7 6 7 5 5 4 4 4 5 5 6 6 6 6 7 7 8 9 8 9 9 8 8 7 6 6 5 4 4 6 7 6
8 7 5 3 2 5 7 4 3 3 6 5 5 7 7 10 6 10 18 21 39 40 17 14 12 6 7 2 2 6 5 6 5 4 4 9 14 8 4 7 6 6 10 13 14 15 14 13 8 1 3 9 8 10 15 15 15 14 11 11 9 8 9 8 7 7 6 6 5 5 5 6 7 7 7 7 8 8 8 9 8 9 10 9 9 8 7 7 7 7 5 5 5 5 7 7 6
4 5 2 1 3 5 5 5 2 0 3 3 4 6 7 10 6 13 22 23 44 48 21 11 7 5 9 3 2 7 4 2 1 2 5 7 13 9 3 8 6 5 12 12 13 15 13 11 7 3 7 12 11 12 16 16 14 11 9 8 8 7 7 6 6 6 6 6 6 6 7 7 8 8 8 8 9 10 11 10 9 9 10 9 8 8 7 7 7 6 4 5 6 6 7 7 6
2 3 2 1 5 6 4 7 4 1 4 3 2 6 9 12 11 12 17 24 41 36 11 3 4 7 11 4 2 8 7 3 -1 2 5 5 12 11 3 7 6 5 12 13 12 14 12 10 8 7 12 14 12 13 14 13 10 8 7 6 6 6 5 5 5 5 6 6 6 6 7 8 9 9 9 9 10 12 11 9 9 8 9 8 7 7 8 8 7 5 5 5 6 6 6 5 6
3 3 3 3 6 7 5 5 5 3 5 5 3 7 11 10 10 9 9 24 39 30 9 4 10 12 11 7 5 11 11 2 -0 6 7 4 10 13 6 4 6 5 10 13 12 13 11 10 11 11 13 14 12 12 11 9 7 5 4 4 4 4 3 3 4 4 4 5 5 6 7 7 8 9 9 8 10 11 10 8 8 8 8 7 6 6 7 7 6 5 5 6 6 5 5 5 5
5 6 5 6 7 6 5 4 4 4 5 7 5 5 7 5 8 8 9 17 24 25 18 13 17 12 8 10 6 10 9 -4 -2 6 6 5 8 13 9 4 6 6 10 13 11 12 11 9 12 11 11 13 12 10 8 6 5 4 3 3 3 3 3 3 3 3 4 5 5 5 6 6 7 8 8 8 8 10 10 9 8 7 7 7 6 6 6 6 6 5 5 6 5 4 4 5 5
7 8 7 7 7 5 5 3 3 5 7 9 6 4 6 7 8 6 8 13 7 11 18 14 12 7 8 13 2 5 9 -5 -3 5 4 6 6 11 10 5 6 6 10 13 9 11 12 9 11 11 10 11 10 8 6 5 4 3 2 2 3 3 3 3 3 4 4 4 4 4 4 5 6 7 7 7 6 7 9 9 8 7 5 7 7 7 7 7 6 5 5 7 7 6 4 4 4
9 9 9 9 9 8 7 6 6 7 6 7 7 5 5 6 9 7 6 11 9 7 8 7 7 4 8 13 4 7 11 -0 -1 3 4 6 4 9 12 6 6 7 9 13 10 10 12 10 10 10 8 7 7 7 5 5 4 3 3 2 3 3 3 4 5 4 4 5 5 4 4 4 6 7 7 7 6 6 7 8 9 7 5 6 8 8 8 8 7 6 6 7 8 8 6 5 5
12 12 12 12 11 10 10 10 13 12 6 5 9 8 5 4 8 11 7 5 10 13 9 7 7 3 2 6 6 9 8 1 3 3 2 6 5 8 13 10 6 6 8 11 10 10 10 11 10 8 8 5 5 5 4 5 4 3 3 3 3 3 3 5 5 4 5 6 6 6 6 5 5 6 7 7 7 8 8 7 8 8 7 7 8 8 8 8 7 6 7 7 7 8 7 6 6
9 9 10 10 9 9 11 14 20 21 10 6 11 10 7 6 5 8 9 4 5 11 12 11 9 6 6 3 2 7 8 3 5 5 3 5 6 6 11 14 8 4 8 9 10 10 8 10 10 8 7 4 4 4 4 4 4 4 4 3 4 4 5 5 5 6 6 6 7 8 8 7 7 7 7 7 7 8 8 8 7 7 7 8 8 8 8 8 7 7 7 8 7 7 7 8 7
6 6 8 8 7 8 7 8 13 20 16 9 13 13 7 9 9 5 7 8 6 6 9 14 16 12 8 6 3 3 6 8 6 4 4 4 6 6 7 13 13 6 7 9 10 10 8 9 9 8 6 4 3 4 4 4 4 5 4 4 4 5 6 6 7 7 7 7 8 9 10 9 9 8 6 6 6 6 8 9 9 8 7 8 8 8 9 9 8 8 8 8 8 7 8 8 8
4 3 7 6 4 4 6 6 7 14 18 11 11 16 8 6 11 7 4 7 6 5 6 10 19 20 11 5 8 7 3 5 6 5 5 4 4 4 4 10 15 10 6 8 10 10 9 9 9 8 6 4 3 3 4 5 5 5 4 5 6 6 7 7 7 8 8 9 9 9 10 9 8 7 6 6 6 7 8 8 8 9 8 7 7 7 8 10 10 8 8 8 8 8 8 8 7
9 6 8 9 5 2 2 4 5 8 15 11 8 15 12 4 8 7 5 7 4 5 6 5 13 24 20 6 2 8 7 4 6 7 6 4 3 2 2 7 14 11 6 7 10 10 10 9 9 9 6 4 3 3 5 5 5 5 5 5 6 7 8 8 7 8 8 8 8 8 8 8 8 8 7 8 7 8 10 9 9 9 9 9 9 8 8 10 9 8 8 8 8 8 9 7 7
14 14 12 11 8 4 -0 -1 4 10 18 16 9 10 7 3 7 7 4 5 6 9 9 6 7 12 22 25 11 2 5 5 6 9 7 4 4 2 2 6 10 12 9 6 8 11 11 9 9 9 7 5 3 3 5 5 5 6 6 7 8 9 9 8 8 8 8 9 10 10 10 9 9 9 10 11 10 9 10 10 9 9 8 9 9 10 10 10 9 8 8 8 8 8 8 7 7
12 14 13 11 10 10 10 8 9 13 17 18 14 12 6 1 4 8 6 2 3 10 9 7 8 2 10 33 32 12 8 10 6 7 9 6 4 3 2 4 8 12 12 7 6 9 11 11 9 8 8 6 4 4 4 4 5 6 8 8 9 10 9 8 9 9 10 10 11 11 10 10 10 10 10 10 10 10 9 9 9 8 8 9 9 9 10 10 9 8 8 8 8 8 7 8 8
11 13 13 10 7 8 8 6 6 8 11 15 18 19 14 5 -0 3 8 5 -1 5 8 6 8 6 2 13 20 12 11 17 14 8 7 6 4 3 2 3 5 10 13 10 6 7 10 11 10 9 9 7 5 4 4 4 5 6 8 9 8 8 7 7 7 7 8 8 8 9 9 9 9 9 9 9 9 9 8 8 8 8 8 9 8 8 7 7 6 7 8 8 8 8 7 7 7
9 9 8 4 1 1 1 -0 -1 2 5 10 15 20 19 9 0 -1 4 7 3 1 5 6 5 7 6 6 8 5 5 17 24 14 6 5 4 3 3 3 4 6 11 12 8 6 7 10 12 10 9 8 6 5 4 4 5 6 7 7 5 4 5 6 6 6 6 6 6 7 8 9 10 10 11 11 10 10 9 9 9 8 8 8 8 6 5 5 5 6 7 7 7 7 8 8 7
10 8 7 7 5 2 3 3 -1 -4 -1 6 10 16 20 13 6 2 1 4 7 3 2 5 5 4 6 7 9 8 6 15 25 17 7 5 4 3 3 3 4 4 7 11 10 7 7 8 12 11 9 9 7 6 4 4 5 6 7 6 4 3 5 7 6 5 5 6 6 6 6 8 8 9 10 11 13 14 13 13 12 10 9 9 9 9 8 8 7 7 8 8 9 9 9 10 9
11 9 7 12 14 7 6 6 3 -0 1 5 7 9 15 16 11 7 5 5 6 4 4 6 5 3 5 7 6 7 9 14 20 15 8 7 7 5 3 2 4 4 5 8 10 11 8 7 10 11 11 10 8 6 5 4 4 5 6 6 3 2 5 7 7 6 6 5 5 5 5 6 5 5 5 6 8 11 12 14 15 15 13 12 11 10 10 10 9 9 10 10 10 9 9 9 9
7 9 7 10 12 12 10 5 3 3 3 4 6 7 8 13 15 13 11 10 6 4 5 7 8 3 3 7 6 7 10 11 15 15 9 8 9 7 4 4 4 4 4 7 9 11 10 8 8 10 12 10 8 6 5 4 4 5 6 6 4 3 4 6 6 5 6 6 5 5 4 3 3 4 3 3 3 4 6 8 10 12 13 14 14 13 12 10 9 9 11 10 9 8 8 9 9
3 6 8 9 9 13 16 11 4 2 1 2 5 9 9 9 14 18 17 15 11 8 6 6 10 8 3 3 5 8 10 9 11 15 12 8 8 8 5 4 5 5 5 6 8 10 10 9 7 8 12 12 9 8 7 5 4 4 4 5 4 4 4 5 6 5 6 6 4 4 4 4 4 4 4 4 3 3 3 3 4 5 7 9 12 13 14 14 13 12 11 10 9 9 8 8 9
4 4 5 7 7 9 14 16 13 8 5 3 3 6 9 8 9 14 19 19 14 10 8 6 9 12 8 3 3 6 10 9 8 11 15 14 8 6 6 5 4 4 5 6 7 8 8 9 9 7 9 11 11 9 7 6 5 5 5 5 5 4 4 4 5 5 6 6 5 5 5 5 5 5 5 5 4 4 4 3 3 3 3 5 7 8 10 11 13 14 14 13 11 9 8 7 7
Height
5879 5879 5880 5880 5880 5881 5881 5881 5881 5882 5882 5882 5881 5881 5881 5881 5881 5881 5881 5881 5881 5881 5880 5880 5880 5880 5880 5880 5880 5880 5880 5880 5880 5880 5880 5880 5880 5880 5880 5880 5879 5878 5879 5879 5880 5881 5882 5882 5882 5883 5883 5882 5882 5881 5882 5882 5883 5883 5884 5885 5885 5886 5888 5888 5889 5889 5890 5892 5893 5894 5895 5897 5898 5898 5897 5897 5897 5896 5896 5896 5895 5896 5896 5896 5897 5897 5898 5899 5900 5900 5901 5901 5901 5902 5903 5904 5904
5879 5879 5880 5880 5880 5881 5881 5881 5882 5883 5882 5882 5882 5881 5881 5881 5882 5882 5882 5882 5882 5881 5881 5881 5881 5881 5881 5880 5880 5881 5880 5880 5880 5880 5879 5879 5879 5880 5880 5880 5879 5879 5879 5880 5879 5880 5881 5882 5882 5882 5882 5883 5882 5882 5882 5881 5882 5882 5883 5884 5884 5885 5886 5888 5888 5888 5889 5891 5892 5893 5895 5896 5897 5898 5898 5898 5897 5896 5896 5896 5896 5896 5897 5898 5898 5898 5898 5899 5899 5900 5900 5900 5901 5902 5904 5905 5905
5879 5880 5880 5880 5880 5881 5882 5882 5882 5883 5883 5883 5882 5881 5881 5882 5882 5883 5883 5883 5882 5882 5882 5882 5882 5881 5881 5881 5881 5881 5881 5881 5881 5880 5879 5878 5879 5879 5880 5880 5880 5880 5880 5880 5879 5879 5881 5882 5881 5881 5882 5883 5883 5883 5882 5882 5882 5882 5882 5882 5883 5885 5885 5886 5887 5888 5889 5891 5892 5893 5894 5896 5897 5898 5899 5899 5898 5897 5897 5897 5896 5895 5897 5899 5900 5899 5899 5898 5899 5900 5901 5900 5901 5904 5905 5905 5905
5880 5880 5880 5880 5881 5881 5882 5882 5882 5883 5883 5883 5883 5882 5882 5882 5883 5883 5883 5883 5883 5882 5882 5882 5882 5882 5882 5882 5881 5882 5882 5881 5881 5880 5879 5878 5878 5879 5879 5879 5880 5880 5880 5880 5880 5879 5880 5881 5881 5881 5882 5883 5883 5883 5883 5882 5882 5882 5882 5881 5882 5883 5884 5885 5886 5887 5889 5891 5892 5893 5894 5895 5896 5898 5899 5899 5898 5898 5898 5898 5897 5895 5896 5898 5900 5900 5900 5899 5899 5900 5901 5902 5904 5904 5905 5905 5905
5880 5880 5881 5881 5881 5882 5882 5882 5882 5883 5883 5883 5883 5883 5882 5882 5883 5884 5884 5884 5884 5883 5882 5882 5882 5882 5882 5882 5882 5882 5882 5881 5881 5880 5880 5879 5878 5879 5878 5879 5879 5880 5880 5880 5880 5880 5880 5881 5882 5882 5882 5883 5883 5883 5883 5882 5882 5882 5881 5880 5880 5882 5883 5885 5886 5887 5889 5890 5892 5893 5893 5894 5895 5897 5898 5899 5899 5899 5899 5899 5897 5896 5896 5897 5900 5901 5901 5901 5901 5900 5902 5903 5904 5904 5903 5904 5905
5880 5881 5881 5882 5882 5882 5882 5882 5882 5883 5883 5884 5884 5883 5883 5882 5883 5884 5884 5884 5884 5883 5883 5883 5883 5882 5882 5882 5882 5882 5881 5881 5881 5880 5880 5879 5879 5879 5879 5879 5879 5879 5880 5880 5880 5880 5880 5881 5882 5882 5882 5883 5883 5882 5882 5883 5882 5882 5882 5881 5881 5881 5883 5886 5886 5888 5889 5889 5891 5892 5892 5893 5894 5896 5897 5898 5899 5899 5900 5900 5899 5897 5897 5899 5900 5899 5901 5903 5903 5903 5904 5904 5904 5904 5904 5904 5905
5880 5881 5882 5882 5882 5882 5882 5882 5882 5883 5884 5884 5884 5883 5883 5883 5884 5884 5884 5884 5884 5884 5883 5883 5883 5883 5882 5882 5883 5882 5882 5881 5880 5880 5879 5879 5880 5880 5879 5879 5879 5879 5879 5880 5880 5880 5880 5881 5882 5882 5882 5882 5882 5882 5882 5882 5882 5882 5882 5883 5883 5883 5884 5886 5886 5888 5889 5888 5890 5891 5891 5892 5894 5896 5897 5898 5899 5900 5900 5901 5900 5899 5899 5900 5899 5897 5899 5902 5904 5906 5906 5905 5905 5905 5905 5904 5905
5881 5881 5882 5882 5882 5882 5882 5882 5882 5883 5884 5884 5884 5884 5884 5884 5885 5885 5884 5884 5884 5884 5884 5884 5883 5883 5883 5883 5883 5883 5882 5881 5880 5880 5880 5880 5880 5880 5880 5880 5879 5879 5879 5879 5879 5879 5880 5880 5881 5882 5882 5882 5882 5882 5882 5882 5883 5883 5883 5883 5884 5884 5885 5886 5886 5887 5889 5889 5889 5890 5890 5892 5894 5896 5897 5897 5898 5899 5900 5901 5901 5901 5900 5900 5900 5898 5899 5900 5904 5906 5906 5907 5908 5907 5906 5906 5907
5881 5881 5882 5882 5882 5881 5882 5882 5882 5884 5884 5885 5885 5885 5884 5885 5885 5885 5885 5884 5884 5884 5884 5883 5883 5883 5883 5883 5883 5883 5882 5881 5880 5880 5880 5880 5880 5880 5880 5880 5880 5879 5879 5879 5879 5879 5879 5880 5880 5881 5881 5881 5882 5882 5882 5883 5884 5884 5883 5883 5883 5884 5886 5886 5886 5888 5889 5889 5889 5889 5889 5891 5894 5895 5896 5897 5898 5899 5900 5901 5901 5902 5902 5901 5902 5901 5900 5900 5904 5905 5905 5907 5909 5909 5908 5908 5908
5881 5881 5881 5881 5881 5881 5882 5882 5883 5883 5884 5885 5885 5885 5885 5885 5885 5885 5885 5885 5884 5884 5884 5883 5883 5883 5883 5883 5883 5882 5882 5881 5881 5881 5880 5880 5880 5879 5879 5880 5880 5880 5879 5879 5879 5879 5879 5879 5880 5881 5881 5881 5881 5882 5883 5884 5884 5884 5884 5884 5882 5884 5886 5887 5887 5888 5889 5889 5889 5889 5889 5891 5893 5895 5896 5897 5898 5899 5900 5901 5902 5903 5903 5903 5904 5904 5903 5903 5904 5905 5905 5906 5907 5907 5907 5908 5909
5881 5881 5881 5881 5881 5881 5881 5882 5882 5883 5884 5885 5885 5885 5885 5885 5885 5884 5884 5884 5884 5884 5884 5884 5883 5883 5883 5883 5882 5882 5882 5882 5882 5881 5880 5880 5880 5879 5879 5880 5880 5880 5880 5879 5879 5879 5879 5879 5880 5880 5880 5881 5881 5882 5883 5884 5884 5884 5884 5884 5883 5884 5887 5887 5888 5889 5889 5890 5890 5889 5889 5892 5893 5895 5895 5897 5898 5899 5900 5901 5902 5904 5905 5905 5906 5906 5907 5907 5906 5906 5905 5905 5905 5906 5906 5907 5909
5880 5881 5881 5880 5880 5881 5880 5880 5882 5883 5884 5885 5885 5885 5885 5885 5884 5884 5884 5884 5884 5884 5884 5884 5883 5883 5883 5883 5882 5882 5882 5882 5882 5881 5881 5880 5880 5879 5879 5879 5880 5880 5880 5879 5879 5879 5878 5879 5879 5880 5881 5881 5881 5882 5883 5883 5884 5884 5885 5885 5884 5885 5886 5887 5888 5889 5889 5889 5890 5890 5890 5892 5893 5895 5896 5896 5897 5899 5900 5901 5903 5904 5905 5906 5907 5908 5909 5910 5909 5909 5908 5907 5907 5907 5907 5908 5909
5880 5880 5880 5880 5881 5880 5879 5880 5882 5883 5884 5884 5885 5885 5884 5884 5884 5884 5884 5884 5884 5884 5884 5884 5884 5883 5884 5883 5883 5883 5882 5882 5882 5882 5881 5880 5880 5880 5879 5879 5879 5879 5879 5879 5879 5879 5879 5878 5879 5880 5881 5881 5882 5882 5882 5883 5884 5884 5885 5886 5885 5886 5887 5887 5888 5888 5889 5889 5890 5890 5891 5892 5894 5895 5896 5897 5898 5899 5900 5901 5903 5904 5906 5906 5908 5909 5911 5911 5911 5911 5911 5911 5911 5910 5910 5911 5911
5880 5880 5880 5880 5881 5881 5880 5881 5882 5883 5883 5884 5884 5884 5884 5884 5884 5884 5883 5883 5884 5884 5884 5884 5884 5884 5884 5884 5883 5883 5883 5883 5882 5882 5881 5880 5880 5879 5879 5879 5879 5879 5879 5879 5879 5879 5878 5878 5879 5880 5881 5881 5882 5882 5882 5882 5884 5885 5885 5886 5886 5887 5887 5887 5887 5887 5888 5889 5890 5891 5892 5892 5894 5895 5896 5897 5898 5899 5900 5901 5903 5904 5905 5906 5908 5910 5911 5912 5912 5913 5913 5914 5913 5913 5913 5913 5914
5879 5880 5880 5880 5881 5881 5881 5882 5882 5883 5883 5884 5884 5884 5884 5884 5885 5884 5884 5884 5884 5884 5884 5884 5884 5884 5884 5884 5884 5883 5883 5883 5883 5882 5882 5880 5880 5879 5879 5879 5879 5878 5878 5878 5879 5879 5878 5878 5878 5879 5880 5881 5881 5881 5882 5883 5884 5885 5885 5886 5886 5887 5887 5886 5887 5886 5887 5888 5890 5891 5892 5893 5894 5895 5896 5897 5898 5898 5900 5901 5902 5904 5905 5907 5908 5910 5911 5913 5913 5914 5914 5915 5915 5915 5915 5915 5915
5879 5880 5880 5880 5881 5882 5882 5882 5883 5883 5883 5884 5884 5884 5884 5885 5885 5885 5884 5884 5884 5884 5884 5885 5885 5884 5884 5884 5884 5884 5884 5884 5883 5883 5882 5881 5880 5879 5879 5878 5878 5878 5878 5878 5878 5878 5878 5878 5878 5878 5879 5880 5880 5880 5882 5884 5884 5884 5885 5886 5887 5887 5887 5887 5887 5886 5887 5888 5889 5890 5892 5893 5893 5895 5896 5897 5897 5898 5899 5901 5903 5904 5906 5907 5909 5910 5911 5913 5914 5915 5915 5916 5916 5916 5916 5916 5917
5879 5880 5880 5880 5881 5882 5883 5883 5883 5883 5883 5884 5885 5884 5885 5885 5886 5886 5885 5884 5884 5884 5884 5884 5884 5884 5884 5884 5884 5884 5884 5884 5884 5883 5882 5881 5880 5879 5878 5878 5878 5878 5878 5877 5878 5878 5878 5878 5877 5878 5878 5878 5879 5880 5882 5883 5882 5884 5886 5887 5886 5886 5886 5888 5887 5887 5888 5889 5889 5890 5892 5893 5893 5894 5896 5897 5897 5898 5899 5901 5903 5904 5906 5908 5909 5910 5911 5913 5914 5915 5916 5916 5916 5916 5917 5917 5918
5879 5879 5880 5880 5881 5882 5882 5883 5883 5883 5883 5884 5885 5885 5886 5886 5886 5886 5885 5884 5884 5884 5884 5884 5884 5883 5884 5884 5884 5884 5884 5884 5884 5883 5882 5881 5880 5879 5878 5878 5878 5877 5877 5877 5877 5878 5877 5877 5877 5877 5877 5878 5878 5880 5882 5881 5882 5885 5886 5886 5885 5885 5886 5888 5888 5887 5889 5889 5889 5890 5892 5893 5893 5894 5896 5896 5897 5898 5900 5901 5903 5904 5906 5908 5909 5910 5911 5913 5914 5915 5916 5917 5917 5917 5917 5918 5918
5878 5879 5879 5880 5880 5881 5882 5882 5883 5882 5883 5883 5885 5886 5886 5886 5887 5886 5885 5884 5884 5885 5884 5884 5884 5884 5884 5883 5884 5884 5884 5884 5884 5883 5882 5881 5880 5879 5878 5878 5878 5877 5877 5877 5877 5877 5877 5877 5876 5876 5876 5877 5878 5879 5880 5879 5881 5885 5884 5884 5885 5885 5886 5887 5887 5887 5889 5890 5890 5891 5892 5892 5893 5894 5895 5896 5897 5898 5900 5902 5903 5905 5906 5908 5909 5910 5911 5912 5914 5915 5916 5917 5917 5917 5918 5918 5919
5878 5878 5879 5879 5880 5881 5881 5882 5882 5882 5882 5883 5884 5885 5886 5886 5886 5886 5886 5885 5884 5884 5884 5884 5884 5884 5884 5883 5884 5884 5884 5884 5883 5883 5882 5881 5880 5880 5879 5878 5878 5877 5876 5876 5877 5877 5877 5876 5875 5875 5876 5876 5877 5878 5878 5878 5880 5884 5884 5884 5884 5885 5886 5887 5887 5888 5889 5890 5890 5891 5892 5893 5893 5894 5895 5896 5897 5899 5900 5902 5903 5905 5906 5908 5909 5910 5911 5913 5914 5916 5917 5917 5917 5917 5918 5919 5920
5877 5878 5878 5879 5880 5880 5881 5882 5882 5882 5882 5882 5883 5884 5885 5886 5886 5885 5885 5884 5884 5884 5884 5884 5884 5884 5884 5884 5884 5884 5884 5884 5883 5882 5881 5881 5881 5880 5879 5878 5878 5877 5876 5876 5876 5876 5876 5876 5875 5875 5875 5875 5876 5877 5876 5876 5879 5883 5884 5883 5883 5884 5885 5886 5887 5888 5888 5889 5890 5891 5892 5893 5893 5894 5895 5896 5898 5899 5901 5902 5903 5905 5906 5908 5909 5910 5912 5913 5915 5916 5917 5918 5918 5918 5919 5920 5921
5877 5877 5878 5879 5880 5881 5881 5882 5882 5882 5882 5882 5882 5883 5884 5885 5885 5885 5884 5884 5883 5883 5884 5884 5884 5884 5884 5884 5884 5884 5884 5884 5883 5882 5881 5881 5881 5880 5879 5879 5878 5877 5876 5875 5876 5876 5876 5875 5875 5874 5874 5875 5875 5876 5875 5875 5877 5881 5883 5883 5883 5884 5885 5885 5886 5887 5888 5889 5890 5891 5892 5893 5893 5894 5895 5896 5898 5899 5901 5902 5903 5905 5906 5908 5910 5911 5912 5914 5915 5917 5918 5918 5918 5919 5920 5921 5922
5876 5877 5878 5878 5879 5880 5881 5881 5881 5882 5881 5881 5881 5882 5883 5884 5885 5885 5884 5884 5883 5883 5884 5884 5884 5884 5885 5885 5884 5884 5884 5884 5883 5882 5881 5881 5881 5880 5879 5879 5878 5876 5875 5875 5875 5875 5875 5875 5875 5874 5874 5874 5875 5875 5875 5874 5876 5880 5882 5882 5882 5884 5885 5885 5886 5887 5888 5889 5890 5891 5892 5893 5894 5895 5895 5897 5898 5899 5901 5902 5903 5905 5907 5909 5911 5912 5913 5915 5916 5917 5918 5919 5919 5920 5921 5922 5923
5876 5876 5878 5878 5879 5880 5880 5881 5881 5880 5880 5880 5880 5881 5881 5882 5884 5884 5884 5884 5884 5883 5883 5884 5884 5884 5884 5885 5885 5884 5884 5884 5883 5882 5881 5882 5882 5881 5879 5879 5877 5876 5875 5874 5874 5874 5875 5875 5875 5874 5874 5874 5874 5875 5875 5874 5875 5878 5880 5880 5881 5883 5883 5884 5885 5886 5887 5888 5890 5891 5892 5893 5894 5894 5895 5897 5898 5899 5901 5902 5903 5905 5907 5909 5911 5912 5914 5915 5917 5918 5919 5919 5920 5921 5922 5923 5924
5876 5876 5877 5878 5879 5879 5880 5880 5880 5879 5879 5879 5879 5880 5880 5881 5882 5883 5883 5883 5883 5883 5883 5884 5884 5884 5884 5884 5884 5884 5884 5884 5883 5882 5882 5882 5882 5880 5879 5878 5877 5876 5875 5874 5874 5874 5874 5874 5874 5874 5874 5874 5874 5874 5875 5874 5874 5876 5878 5879 5880 5881 5883 5884 5885 5886 5887 5888 5890 5891 5892 5893 5893 5894 5895 5897 5898 5899 5901 5902 5904 5906 5908 5909 5911 5913 5914 5916 5917 5918 5919 5920 5921 5922 5923 5924 5925
5875 5876 5877 5877 5878 5879 5880 5880 5879 5878 5878 5878 5878 5878 5878 5879 5880 5881 5881 5882 5882 5882 5883 5883 5884 5883 5884 5884 5884 5884 5884 5884 5883 5882 5881 5881 5881 5879 5878 5878 5877 5876 5875 5874 5874 5874 5874 5874 5874 5874 5874 5874 5874 5874 5875 5875 5875 5876 5877 5878 5879 5881 5882 5884 5885 5886 5887 5888 5889 5891 5892 5892 5893 5894 5896 5897 5898 5899 5901 5902 5904 5906 5908 5910 5911 5913 5915 5916 5918 5919 5920 5920 5922 5923 5924 5925 5926
5874 5875 5876 5877 5877 5878 5879 5879 5878 5878 5877 5877 5877 5877 5877 5877 5878 5879 5881 5881 5882 5882 5882 5883 5883 5883 5883 5883 5883 5884 5884 5884 5883 5882 5881 5881 5880 5878 5878 5877 5876 5875 5874 5874 5874 5874 5874 5874 5874 5874 5874 5874 5874 5874 5875 5875 5875 5876 5877 5878 5879 5880 5881 5883 5884 5885 5887 5888 5889 5890 5891 5892 5893 5895 5896 5897 5898 5900 5901 5903 5905 5907 5909 5910 5912 5914 5915 5917 5918 5919 5920 5921 5922 5924 5925 5926 5927
5873 5874 5875 5876 5877 5878 5878 5878 5877 5877 5877 5876 5876 5876 5876 5876 5877 5878 5880 5881 5881 5881 5881 5881 5882 5882 5882 5882 5883 5883 5883 5883 5882 5881 5880 5880 5879 5879 5878 5877 5876 5875 5874 5873 5874 5874 5874 5874 5874 5874 5874 5874 5874 5874 5874 5875 5875 5876 5877 5878 5879 5880 5881 5882 5884 5885 5886 5888 5889 5890 5891 5892 5894 5895 5896 5897 5898 5900 5902 5904 5906 5908 5909 5911 5913 5914 5916 5917 5918 5920 5921 5922 5923 5924 5926 5927 5927
5872 5873 5874 5875 5876 5876 5876 5876 5876 5876 5876 5876 5876 5876 5874 5874 5876 5877 5879 5880 5880 5880 5880 5880 5881 5881 5882 5881 5882 5882 5882 5883 5882 5881 5880 5879 5879 5879 5879 5877 5876 5875 5874 5874 5874 5874 5874 5874 5874 5873 5873 5874 5874 5874 5874 5874 5875 5875 5876 5877 5878 5879 5880 5882 5883 5885 5886 5888 5888 5890 5891 5892 5894 5895 5896 5897 5898 5900 5903 5905 5907 5908 5910 5912 5914 5915 5916 5917 5919 5920 5921 5922 5924 5925 5926 5927 5928
5871 5872 5873 5874 5874 5874 5875 5875 5875 5875 5875 5875 5875 5875 5874 5874 5875 5876 5876 5877 5878 5878 5878 5878 5879 5880 5880 5881 5881 5881 5882 5882 5881 5880 5880 5879 5879 5879 5878 5877 5876 5875 5874 5874 5874 5874 5875 5874 5874 5873 5873 5873 5874 5874 5874 5874 5874 5875 5876 5877 5878 5879 5880 5881 5883 5885 5886 5888 5888 5890 5891 5893 5894 5895 5896 5897 5899 5901 5903 5905 5907 5909 5911 5913 5914 5915 5916 5918 5919 5920 5921 5923 5924 5926 5927 5927 5928
5870 5871 5872 5872 5872 5873 5873 5874 5874 5874 5874 5874 5874 5875 5874 5873 5875 5875 5874 5874 5875 5876 5876 5876 5877 5878 5879 5880 5880 5880 5881 5882 5881 5880 5880 5880 5879 5879 5878 5876 5875 5875 5874 5874 5874 5874 5875 5874 5874 5873 5873 5873 5874 5873 5874 5874 5874 5875 5876 5877 5878 5879 5880 5881 5882 5884 5886 5887 5889 5890 5891 5893 5895 5896 5897 5898 5900 5902 5904 5906 5908 5910 5912 5914 5915 5916 5917 5918 5919 5920 5922 5923 5925 5926 5927 5928 5928
5869 5870 5870 5871 5871 5871 5872 5873 5873 5873 5873 5873 5873 5874 5874 5873 5873 5873 5872 5872 5873 5874 5874 5874 5875 5877 5878 5878 5879 5880 5881 5882 5881 5880 5880 5880 5880 5879 5877 5876 5876 5875 5875 5874 5874 5874 5875 5874 5874 5874 5874 5874 5874 5874 5874 5874 5874 5875 5875 5876 5878 5879 5880 5880 5882 5884 5886 5888 5889 5890 5892 5894 5895 5896 5897 5899 5901 5903 5905 5907 5909 5911 5913 5914 5915 5916 5918 5919 5920 5921 5922 5924 5925 5927 5927 5928 5929
5869 5869 5869 5870 5870 5870 5871 5872 5872 5873 5873 5873 5872 5873 5874 5872 5872 5872 5871 5870 5871 5871 5871 5872 5873 5874 5876 5877 5878 5879 5881 5881 5881 5881 5881 5881 5880 5879 5877 5876 5876 5876 5875 5875 5874 5874 5874 5874 5874 5874 5874 5874 5874 5874 5874 5874 5874 5875 5875 5876 5877 5878 5879 5880 5882 5884 5886 5888 5889 5891 5893 5894 5895 5896 5898 5900 5902 5904 5906 5908 5910 5912 5913 5915 5916 5917 5918 5920 5921 5922 5923 5924 5926 5927 5928 5928 5929
5868 5869 5869 5870 5870 5870 5871 5871 5871 5871 5871 5871 5871 5872 5872 5871 5870 5869 5869 5868 5868 5868 5868 5869 5870 5872 5874 5876 5878 5880 5881 5881 5880 5881 5881 5881 5880 5879 5877 5877 5876 5876 5875 5875 5874 5874 5874 5875 5874 5874 5874 5874 5874 5874 5874 5874 5875 5875 5875 5876 5877 5878 5879 5881 5883 5885 5887 5889 5891 5892 5894 5895 5896 5897 5899 5902 5904 5905 5907 5909 5911 5912 5913 5915 5916 5918 5919 5920 5921 5922 5923 5925 5926 5928 5928 5929 5930
5867 5868 5869 5869 5869 5869 5869 5870 5870 5870 5870 5870 5871 5871 5871 5870 5869 5867 5866 5865 5864 5864 5865 5867 5869 5871 5873 5876 5878 5880 5880 5880 5880 5880 5881 5880 5879 5879 5878 5877 5877 5876 5876 5875 5874 5874 5875 5875 5875 5875 5874 5874 5874 5875 5875 5875 5875 5875 5876 5877 5878 5879 5880 5882 5884 5886 5888 5890 5892 5894 5895 5896 5897 5899 5901 5903 5905 5906 5908 5910 5911 5912 5914 5916 5917 5918 5919 5920 5921 5922 5924 5925 5927 5928 5929 5930 5930
5866 5867 5868 5869 5869 5869 5869 5869 5868 5869 5869 5869 5869 5869 5869 5868 5867 5866 5864 5862 5860 5860 5862 5865 5868 5870 5873 5875 5877 5878 5879 5880 5880 5881 5880 5879 5879 5879 5879 5878 5877 5877 5877 5876 5875 5875 5875 5876 5876 5876 5875 5875 5876 5876 5876 5876 5876 5877 5878 5878 5879 5881 5882 5884 5886 5888 5890 5892 5893 5895 5896 5897 5898 5900 5902 5904 5906 5907 5909 5910 5911 5913 5914 5916 5917 5918 5919 5921 5922 5923 5924 5926 5927 5928 5929 5930 5931
5864 5866 5867 5868 5869 5869 5868 5868 5867 5867 5868 5868 5868 5868 5868 5867 5865 5864 5862 5860 5857 5857 5860 5863 5866 5869 5871 5873 5875 5877 5879 5880 5880 5880 5880 5879 5879 5878 5879 5878 5878 5877 5877 5876 5876 5876 5876 5877 5877 5877 5877 5877 5878 5878 5878 5878 5878 5878 5879 5880 5881 5883 5885 5887 5889 5890 5892 5893 5895 5896 5897 5899 5900 5902 5904 5905 5907 5908 5909 5911 5912 5913 5915 5916 5917 5918 5920 5921 5922 5923 5925 5926 5927 5928 5930 5931 5931
5863 5864 5865 5867 5867 5867 5867 5867 5867 5866 5867 5867 5867 5867 5866 5865 5864 5863 5860 5858 5856 5857 5859 5862 5865 5867 5869 5871 5874 5877 5878 5879 5879 5879 5879 5878 5879 5878 5878 5879 5878 5878 5878 5877 5877 5876 5877 5878 5878 5878 5879 5879 5879 5880 5880 5880 5881 5881 5881 5882 5883 5885 5887 5889 5890 5892 5894 5895 5896 5897 5899 5900 5902 5903 5905 5906 5908 5909 5910 5911 5912 5914 5915 5917 5918 5919 5920 5921 5923 5924 5925 5926 5927 5929 5930 5931 5932
5862 5863 5864 5865 5865 5866 5866 5866 5866 5866 5866 5866 5865 5865 5865 5865 5863 5862 5859 5857 5856 5856 5859 5861 5864 5866 5868 5870 5874 5876 5877 5878 5878 5878 5878 5878 5878 5878 5878 5879 5879 5879 5879 5878 5878 5877 5878 5878 5879 5879 5880 5880 5881 5881 5882 5883 5884 5884 5884 5885 5886 5887 5889 5891 5892 5894 5895 5897 5898 5899 5900 5902 5903 5904 5906 5907 5909 5910 5911 5912 5913 5914 5916 5917 5918 5919 5920 5922 5923 5924 5925 5927 5928 5929 5930 5931 5932
5861 5862 5863 5863 5864 5864 5864 5865 5865 5865 5865 5865 5864 5865 5865 5864 5863 5862 5859 5857 5857 5857 5859 5861 5863 5865 5867 5870 5873 5875 5876 5877 5877 5877 5878 5878 5879 5879 5879 5880 5880 5879 5879 5879 5878 5878 5879 5880 5880 5880 5881 5881 5882 5883 5884 5885 5886 5887 5888 5888 5889 5890 5892 5893 5894 5896 5897 5898 5899 5901 5902 5903 5905 5906 5907 5908 5910 5911 5912 5913 5913 5915 5916 5917 5918 5919 5921 5922 5924 5925 5926 5927 5928 5930 5930 5931 5932
5860 5861 5862 5862 5863 5863 5863 5864 5864 5864 5864 5864 5864 5864 5864 5864 5863 5862 5860 5858 5859 5859 5860 5862 5863 5865 5869 5871 5873 5875 5876 5877 5877 5877 5878 5878 5879 5879 5879 5880 5880 5880 5880 5880 5879 5880 5880 5881 5881 5881 5882 5883 5883 5884 5886 5887 5887 5888 5889 5890 5891 5892 5893 5894 5896 5897 5898 5899 5901 5902 5904 5905 5906 5907 5908 5909 5911 5912 5913 5913 5914 5915 5916 5917 5919 5920 5921 5922 5924 5925 5926 5927 5928 5929 5930 5931 5931
5859 5861 5861 5862 5861 5862 5862 5862 5862 5863 5863 5863 5863 5864 5864 5864 5863 5863 5861 5860 5860 5861 5862 5863 5864 5867 5870 5872 5873 5875 5876 5876 5876 5877 5878 5878 5879 5880 5880 5881 5880 5880 5881 5880 5880 5881 5881 5882 5882 5883 5884 5885 5885 5886 5888 5889 5889 5890 5890 5891 5892 5893 5894 5896 5897 5898 5899 5901 5902 5903 5905 5906 5907 5908 5909 5910 5912 5913 5914 5914 5915 5916 5917 5918 5919 5921 5922 5922 5924 5925 5926 5928 5928 5929 5930 5930 5931
5858 5859 5860 5860 5860 5860 5860 5860 5861 5861 5862 5862 5863 5863 5864 5864 5863 5863 5862 5862 5862 5863 5864 5865 5866 5868 5870 5872 5873 5874 5876 5876 5876 5876 5878 5878 5879 5880 5880 5881 5881 5881 5881 5881 5881 5882 5882 5883 5884 5884 5885 5886 5887 5888 5890 5891 5891 5892 5892 5893 5894 5895 5896 5897 5898 5900 5901 5902 5903 5904 5905 5906 5907 5909 5910 5911 5912 5913 5914 5915 5916 5917 5917 5918 5919 5921 5922 5923 5924 5925 5926 5928 5928 5929 5930 5930 5931
5857 5857 5858 5859 5858 5858 5858 5859 5859 5860 5861 5861 5861 5862 5863 5863 5863 5863 5863 5863 5863 5863 5865 5866 5868 5869 5870 5872 5873 5874 5875 5876 5876 5876 5878 5878 5879 5879 5880 5881 5882 5881 5882 5882 5882 5883 5884 5884 5885 5886 5887 5888 5889 5890 5892 5893 5894 5894 5895 5895 5896 5897 5898 5899 5900 5901 5902 5903 5904 5905 5906 5907 5908 5910 5911 5912 5913 5914 5915 5916 5917 5918 5919 5919 5920 5921 5922 5923 5924 5925 5926 5927 5928 5929 5929 5930 5930
5855 5855 5856 5857 5857 5857 5857 5858 5858 5858 5859 5860 5860 5862 5862 5862 5863 5863 5863 5863 5863 5864 5865 5866 5868 5868 5870 5872 5873 5874 5875 5876 5876 5876 5878 5878 5879 5879 5880 5882 5882 5882 5882 5882 5883 5884 5885 5885 5886 5887 5888 5889 5891 5892 5893 5894 5895 5896 5896 5897 5897 5898 5899 5900 5901 5902 5903 5904 5905 5906 5907 5908 5909 5911 5912 5913 5914 5915 5916 5916 5917 5918 5920 5920 5921 5922 5923 5924 5925 5926 5926 5927 5928 5928 5929 5929 5930
5853 5853 5854 5855 5855 5855 5856 5856 5857 5857 5858 5859 5859 5861 5862 5862 5862 5862 5863 5863 5863 5864 5864 5865 5867 5868 5869 5871 5872 5873 5874 5876 5876 5876 5877 5878 5879 5879 5880 5882 5883 5882 5882 5883 5883 5884 5886 5886 5887 5888 5890 5891 5892 5893 5894 5895 5896 5897 5898 5898 5899 5899 5900 5901 5901 5903 5904 5905 5906 5907 5908 5909 5910 5911 5912 5913 5914 5915 5916 5917 5918 5919 5920 5921 5922 5923 5923 5924 5925 5926 5926 5927 5928 5928 5929 5929 5930
5852 5853 5853 5853 5853 5854 5855 5855 5856 5857 5858 5858 5858 5860 5861 5861 5861 5862 5862 5862 5863 5863 5864 5864 5865 5867 5868 5869 5871 5872 5874 5875 5876 5876 5877 5878 5879 5879 5880 5882 5884 5883 5883 5883 5884 5885 5886 5887 5888 5889 5891 5892 5893 5894 5895 5896 5897 5898 5898 5899 5900 5900 5901 5902 5902 5903 5904 5906 5907 5908 5909 5910 5911 5911 5912 5913 5914 5915 5916 5917 5918 5919 5920 5921 5922 5923 5924 5925 5925 5926 5927 5927 5928 5928 5928 5929 5930
5851 5852 5852 5852 5852 5853 5853 5854 5855 5857 5858 5857 5857 5859 5861 5861 5861 5861 5861 5862 5862 5863 5863 5863 5864 5865 5867 5868 5870 5871 5872 5874 5875 5876 5877 5878 5879 5879 5879 5881 5883 5884 5883 5884 5884 5885 5887 5888 5889 5890 5891 5892 5893 5894 5895 5897 5898 5898 5899 5900 5901 5901 5902 5903 5903 5904 5905 5906 5908 5909 5910 5910 5911 5912 5913 5914 5915 5916 5916 5917 5918 5919 5920 5921 5922 5923 5924 5925 5926 5926 5927 5927 5928 5928 5929 5929 5930
5850 5850 5851 5851 5852 5852 5853 5853 5854 5855 5857 5857 5857 5858 5860 5860 5860 5860 5860 5861 5862 5862 5862 5863 5863 5864 5865 5867 5868 5870 5871 5872 5874 5875 5877 5878 5878 5879 5879 5880 5882 5884 5884 5884 5885 5885 5887 5888 5890 5891 5892 5893 5894 5895 5896 5897 5898 5899 5900 5900 5901 5902 5903 5904 5904 5905 5906 5907 5908 5909 5910 5910 5911 5912 5913 5914 5915 5916 5917 5917 5918 5919 5920 5921 5923 5924 5924 5925 5926 5926 5927 5928 5928 5928 5929 5929 5930
5848 5849 5850 5850 5851 5851 5852 5852 5853 5854 5855 5855 5855 5857 5859 5859 5859 5859 5860 5860 5861 5861 5862 5862 5863 5863 5864 5865 5866 5868 5870 5871 5873 5875 5876 5877 5878 5878 5879 5879 5881 5883 5884 5884 5885 5886 5887 5888 5890 5891 5892 5894 5895 5895 5896 5897 5899 5900 5901 5901 5902 5903 5904 5905 5905 5906 5907 5908 5908 5909 5910 5911 5912 5913 5913 5914 5915 5916 5917 5918 5918 5919 5920 5921 5922 5923 5924 5925 5926 5926 5927 5927 5928 5929 5929 5929 5930
5847 5848 5849 5850 5850 5850 5851 5851 5852 5853 5853 5853 5854 5855 5857 5858 5858 5858 5859 5859 5859 5860 5861 5862 5862 5863 5864 5864 5865 5867 5869 5870 5872 5874 5875 5876 5877 5878 5878 5879 5880 5882 5884 5884 5885 5886 5887 5888 5889 5891 5892 5894 5895 5896 5897 5898 5899 5900 5901 5902 5903 5904 5905 5906 5906 5907 5908 5908 5909 5910 5911 5911 5912 5913 5914 5915 5915 5916 5917 5918 5919 5919 5920 5921 5922 5923 5924 5924 5925 5926 5927 5927 5928 5928 5928 5929 5929
5847 5847 5848 5849 5849 5849 5850 5850 5850 5851 5852 5852 5853 5855 5856 5857 5857 5857 5858 5858 5858 5859 5860 5861 5862 5863 5864 5865 5865 5867 5868 5869 5870 5872 5873 5874 5875 5877 5878 5879 5879 5881 5883 5885 5885 5885 5886 5888 5889 5891 5892 5894 5895 5897 5898 5899 5900 5901 5902 5903 5903 5904 5905 5906 5907 5908 5908 5909 5910 5911 5911 5912 5913 5914 5914 5915 5916 5917 5917 5918 5919 5920 5921 5922 5922 5923 5924 5924 5925 5925 5926 5927 5927 5927 5928 5928 5928
5847 5847 5848 5848 5848 5848 5849 5849 5849 5849 5850 5851 5852 5853 5854 5855 5856 5856 5856 5857 5857 5858 5859 5861 5862 5863 5864 5865 5865 5866 5867 5867 5868 5869 5871 5872 5873 5875 5877 5878 5879 5880 5882 5884 5885 5885 5886 5887 5889 5890 5892 5893 5895 5896 5898 5899 5900 5901 5902 5903 5904 5905 5906 5906 5907 5908 5909 5910 5911 5911 5912 5913 5913 5914 5915 5916 5916 5917 5918 5919 5920 5920 5921 5922 5923 5923 5924 5924 5924 5925 5925 5926 5927 5927 5927 5928 5928
5847 5847 5847 5847 5847 5847 5848 5848 5848 5848 5849 5849 5850 5851 5852 5854 5855 5855 5855 5855 5855 5857 5858 5860 5861 5862 5863 5864 5864 5865 5866 5866 5866 5867 5868 5869 5871 5873 5874 5876 5878 5879 5880 5882 5884 5885 5886 5887 5888 5890 5891 5892 5894 5896 5897 5899 5900 5901 5902 5903 5904 5905 5906 5907 5908 5908 5909 5910 5911 5912 5913 5913 5914 5915 5915 5916 5917 5918 5918 5919 5920 5921 5922 5922 5923 5923 5923 5924 5924 5925 5925 5926 5926 5927 5927 5927 5928
5846 5846 5846 5846 5846 5846 5846 5846 5846 5846 5847 5847 5848 5849 5850 5851 5853 5853 5854 5854 5854 5855 5857 5858 5860 5861 5862 5863 5863 5864 5864 5865 5865 5866 5867 5869 5870 5871 5872 5874 5876 5878 5879 5881 5883 5885 5886 5887 5888 5889 5890 5892 5893 5895 5897 5898 5899 5900 5902 5903 5904 5905 5906 5907 5908 5909 5910 5911 5912 5912 5913 5914 5914 5915 5916 5917 5918 5918 5919 5920 5920 5921 5922 5922 5922 5923 5923 5923 5924 5924 5925 5925 5926 5926 5927 5927 5927
5844 5845 5845 5845 5845 5845 5844 5844 5845 5845 5845 5846 5846 5847 5848 5849 5850 5851 5852 5852 5853 5853 5855 5856 5858 5859 5860 5861 5862 5863 5863 5864 5864 5865 5866 5867 5869 5869 5870 5872 5874 5876 5878 5879 5881 5883 5885 5886 5887 5889 5890 5891 5893 5895 5896 5898 5899 5900 5901 5902 5904 5905 5906 5907 5908 5909 5910 5911 5912 5912 5913 5914 5915 5915 5916 5917 5918 5919 5919 5920 5920 5921 5921 5921 5922 5922 5922 5923 5923 5924 5924 5925 5925 5925 5926 5926 5927
5842 5843 5843 5843 5843 5843 5843 5843 5843 5843 5843 5843 5844 5845 5846 5847 5848 5849 5850 5851 5851 5852 5853 5855 5856 5857 5859 5860 5860 5861 5862 5862 5863 5864 5865 5866 5867 5868 5868 5870 5871 5873 5876 5878 5880 5881 5883 5885 5886 5888 5890 5891 5892 5893 5895 5897 5898 5900 5901 5902 5903 5905 5906 5907 5908 5909 5910 5911 5912 5912 5913 5914 5914 5915 5916 5917 5917 5918 5919 5920 5920 5920 5921 5921 5921 5922 5922 5923 5923 5923 5924 5924 5924 5924 5925 5926 5926
5840 5840 5841 5841 5841 5841 5841 5841 5841 5841 5841 5841 5842 5843 5844 5845 5846 5846 5847 5848 5849 5851 5852 5853 5854 5855 5856 5857 5859 5860 5860 5861 5861 5863 5864 5865 5866 5867 5867 5867 5869 5871 5874 5876 5878 5879 5881 5883 5885 5887 5889 5890 5891 5892 5894 5896 5897 5899 5900 5902 5903 5904 5905 5907 5908 5909 5910 5911 5911 5912 5913 5913 5914 5915 5915 5916 5917 5918 5918 5919 5920 5920 5921 5921 5921 5922 5922 5923 5923 5923 5923 5923 5924 5924 5925 5925 5925